Time,TemperatureF,DewpointF,PressureIn,WindDirection,WindDirectionDegrees,WindSpeedMPH,WindSpeedGustMPH,Humidity,HourlyPrecipIn,Conditions,Clouds,dailyrainin,SoftwareType,DateUTC
2013-03-10 00:00:00,34.9,16.7,30.32,NW,322,3.0,5.0,47,0.00,,,0.00,meteohub,2013-03-10 05:00:00,
2013-03-10 00:01:00,34.9,16.7,30.32,NNW,333,3.0,6.0,47,0.00,,,0.00,meteohub,2013-03-10 05:01:00,
2013-03-10 00:02:00,34.9,16.7,30.32,NNW,331,4.0,6.0,47,0.00,,,0.00,meteohub,2013-03-10 05:02:00,
2013-03-10 00:07:00,34.9,16.7,30.32,WNW,298,3.0,6.0,47,0.00,,,0.00,meteohub,2013-03-10 05:07:00,
2013-03-10 00:12:00,34.7,16.5,30.32,SW,236,3.0,6.0,47,0.00,,,0.00,meteohub,2013-03-10 05:12:00,
2013-03-10 00:18:00,34.7,16.5,30.32,NW,313,5.0,6.0,47,0.00,,,0.00,meteohub,2013-03-10 05:18:00,
2013-03-10 00:23:00,34.5,16.3,30.32,NW,310,4.0,7.0,47,0.00,,,0.00,meteohub,2013-03-10 05:23:00,
2013-03-10 00:28:00,34.5,16.3,30.32,WNW,293,4.0,7.0,47,0.00,,,0.00,meteohub,2013-03-10 05:28:00,
2013-03-10 00:33:00,34.3,16.2,30.32,WNW,284,4.0,7.0,47,0.00,,,0.00,meteohub,2013-03-10 05:33:00,
2013-03-10 00:39:00,34.5,16.3,30.32,WNW,298,4.0,6.0,47,0.00,,,0.00,meteohub,2013-03-10 05:39:00,
2013-03-10 00:44:00,34.5,16.3,30.32,West,273,5.0,6.0,47,0.00,,,0.00,meteohub,2013-03-10 05:44:00,
2013-03-10 00:49:00,34.9,16.7,30.32,WNW,296,4.0,8.0,47,0.00,,,0.00,meteohub,2013-03-10 05:49:00,
2013-03-10 00:54:00,34.9,16.7,30.32,NW,304,8.0,8.0,47,0.00,,,0.00,meteohub,2013-03-10 05:54:00,
2013-03-10 01:00:00,35.1,17.4,30.32,NW,307,6.0,8.0,48,0.00,,,0.00,meteohub,2013-03-10 06:00:00,
2013-03-10 01:05:00,35.2,17.6,30.32,WNW,298,6.0,8.0,48,0.00,,,0.00,meteohub,2013-03-10 06:05:00,
2013-03-10 01:10:00,35.4,17.6,30.32,NW,317,6.0,8.0,48,0.00,,,0.00,meteohub,2013-03-10 06:10:00,
2013-03-10 01:15:00,35.8,18.5,30.32,WNW,282,4.0,9.0,49,0.00,,,0.00,meteohub,2013-03-10 06:15:00,
2013-03-10 01:20:00,36.0,18.7,30.32,NW,311,5.0,9.0,49,0.00,,,0.00,meteohub,2013-03-10 06:20:00,
2013-03-10 01:26:00,36.1,18.9,30.32,WNW,303,6.0,8.0,49,0.00,,,0.00,meteohub,2013-03-10 06:26:00,
2013-03-10 01:31:00,36.3,19.4,30.32,NW,308,6.0,8.0,50,0.00,,,0.00,meteohub,2013-03-10 06:31:00,
2013-03-10 01:36:00,36.7,19.8,30.32,WSW,242,9.0,9.0,50,0.00,,,0.00,meteohub,2013-03-10 06:36:00,
2013-03-10 01:41:00,37.0,19.6,30.32,NW,318,9.0,9.0,49,0.00,,,0.00,meteohub,2013-03-10 06:41:00,
2013-03-10 01:47:00,37.0,19.2,30.32,NW,307,9.0,11.0,48,0.00,,,0.00,meteohub,2013-03-10 06:47:00,
2013-03-10 01:52:00,37.2,18.9,30.32,WNW,300,6.0,13.0,47,0.00,,,0.00,meteohub,2013-03-10 06:52:00,
2013-03-10 01:57:00,37.0,18.1,30.32,WNW,300,5.0,13.0,46,0.00,,,0.00,meteohub,2013-03-10 06:57:00,
2013-03-10 03:02:00,37.0,17.6,30.32,NE,48,10.0,-999.0,45,-99.99,,,0.00,meteohub,2013-03-10 07:02:00,
2013-03-10 03:07:00,37.0,17.6,30.32,WNW,296,7.0,-999.0,45,-99.99,,,0.00,meteohub,2013-03-10 07:07:00,
2013-03-10 03:12:00,37.2,17.8,30.32,NW,306,6.0,-999.0,45,-99.99,,,0.00,meteohub,2013-03-10 07:12:00,
2013-03-10 03:17:00,37.2,17.2,30.32,NW,320,8.0,-999.0,44,-99.99,,,0.00,meteohub,2013-03-10 07:17:00,
2013-03-10 03:22:00,37.4,16.9,30.32,WNW,288,6.0,-999.0,43,-99.99,,,0.00,meteohub,2013-03-10 07:22:00,
2013-03-10 03:27:00,37.4,16.3,30.32,NNW,333,8.0,-999.0,42,-99.99,,,0.00,meteohub,2013-03-10 07:27:00,
2013-03-10 03:33:00,37.4,16.3,30.32,NW,316,6.0,-999.0,42,-99.99,,,0.00,meteohub,2013-03-10 07:33:00,
2013-03-10 03:38:00,37.4,15.8,30.32,NW,311,8.0,-999.0,41,-99.99,,,0.00,meteohub,2013-03-10 07:38:00,
2013-03-10 03:43:00,37.4,15.8,30.32,NW,307,8.0,-999.0,41,-99.99,,,0.00,meteohub,2013-03-10 07:43:00,
2013-03-10 03:48:00,37.4,15.3,30.32,NNW,334,6.0,-999.0,40,-99.99,,,0.00,meteohub,2013-03-10 07:48:00,
2013-03-10 03:53:00,37.4,15.3,30.32,NW,312,8.0,-999.0,40,-99.99,,,0.00,meteohub,2013-03-10 07:53:00,
2013-03-10 03:59:00,37.4,15.3,30.32,NW,321,8.0,-999.0,40,-99.99,,,0.00,meteohub,2013-03-10 07:59:00,
2013-03-10 04:04:00,37.4,15.3,30.32,NNW,331,13.0,-999.0,40,-99.99,,,0.00,meteohub,2013-03-10 08:04:00,
2013-03-10 04:09:00,37.4,15.3,30.32,NW,321,8.0,-999.0,40,-99.99,,,0.00,meteohub,2013-03-10 08:09:00,
2013-03-10 04:14:00,37.4,14.7,30.32,WNW,298,8.0,-999.0,39,-99.99,,,0.00,meteohub,2013-03-10 08:14:00,
2013-03-10 04:19:00,37.2,15.1,30.32,NW,310,8.0,-999.0,40,-99.99,,,0.00,meteohub,2013-03-10 08:19:00,
2013-03-10 04:25:00,37.4,14.7,30.32,NW,316,9.0,-999.0,39,-99.99,,,0.00,meteohub,2013-03-10 08:25:00,
2013-03-10 04:30:00,37.2,15.1,30.32,NNW,335,11.0,-999.0,40,-99.99,,,0.00,meteohub,2013-03-10 08:30:00,
2013-03-10 04:35:00,37.2,15.1,30.32,WNW,303,13.0,-999.0,40,-99.99,,,0.00,meteohub,2013-03-10 08:35:00,
2013-03-10 04:40:00,37.0,14.4,30.32,NW,309,11.0,-999.0,39,-99.99,,,0.00,meteohub,2013-03-10 08:40:00,
2013-03-10 04:45:00,37.0,14.4,30.32,WNW,301,8.0,-999.0,39,-99.99,,,0.00,meteohub,2013-03-10 08:45:00,
2013-03-10 04:51:00,37.2,14.5,30.32,WNW,293,12.0,-999.0,39,-99.99,,,0.00,meteohub,2013-03-10 08:51:00,
2013-03-10 04:56:00,37.2,14.5,30.32,WSW,250,13.0,-999.0,39,-99.99,,,0.00,meteohub,2013-03-10 08:56:00,
2013-03-10 05:01:00,37.2,14.5,30.35,WNW,282,11.0,-999.0,39,-99.99,,,0.00,meteohub,2013-03-10 09:01:00,
2013-03-10 05:07:00,37.2,14.5,30.35,South,185,8.0,-999.0,39,-99.99,,,0.00,meteohub,2013-03-10 09:07:00,
2013-03-10 05:12:00,37.2,14.5,30.35,NW,321,11.0,-999.0,39,-99.99,,,0.00,meteohub,2013-03-10 09:12:00,
2013-03-10 05:17:00,37.0,14.4,30.35,NW,322,6.0,-999.0,39,-99.99,,,0.00,meteohub,2013-03-10 09:17:00,
2013-03-10 05:22:00,37.2,14.5,30.35,NNW,346,6.0,-999.0,39,-99.99,,,0.00,meteohub,2013-03-10 09:22:00,
2013-03-10 05:27:00,37.2,14.5,30.35,NW,315,8.0,-999.0,39,-99.99,,,0.00,meteohub,2013-03-10 09:27:00,
2013-03-10 05:32:00,37.2,14.5,30.35,WNW,300,6.0,-999.0,39,-99.99,,,0.00,meteohub,2013-03-10 09:32:00,
2013-03-10 05:37:00,37.2,14.5,30.35,NNW,338,6.0,-999.0,39,-99.99,,,0.00,meteohub,2013-03-10 09:37:00,
2013-03-10 05:42:00,37.2,14.5,30.35,West,271,9.0,-999.0,39,-99.99,,,0.00,meteohub,2013-03-10 09:42:00,
2013-03-10 05:47:00,37.2,14.5,30.35,NW,307,5.0,-999.0,39,-99.99,,,0.00,meteohub,2013-03-10 09:47:00,
2013-03-10 05:53:00,37.2,14.5,30.35,West,278,8.0,-999.0,39,-99.99,,,0.00,meteohub,2013-03-10 09:53:00,
2013-03-10 05:58:00,37.2,14.5,30.35,NW,313,8.0,-999.0,39,-99.99,,,0.00,meteohub,2013-03-10 09:58:00,
2013-03-10 06:03:00,37.2,14.5,30.35,WNW,299,8.0,-999.0,39,-99.99,,,0.00,meteohub,2013-03-10 10:03:00,
2013-03-10 06:09:00,37.4,14.7,30.35,WNW,287,3.0,-999.0,39,-99.99,,,0.00,meteohub,2013-03-10 10:09:00,
2013-03-10 06:14:00,37.2,14.5,30.35,NW,309,9.0,-999.0,39,-99.99,,,0.00,meteohub,2013-03-10 10:14:00,
2013-03-10 06:19:00,37.2,13.3,30.35,NW,315,8.0,-999.0,37,-99.99,,,0.00,meteohub,2013-03-10 10:19:00,
2013-03-10 06:24:00,37.2,13.3,30.35,NW,320,5.0,-999.0,37,-99.99,,,0.00,meteohub,2013-03-10 10:24:00,
2013-03-10 06:30:00,37.2,14.0,30.38,WNW,293,6.0,-999.0,38,-99.99,,,0.00,meteohub,2013-03-10 10:30:00,
2013-03-10 06:35:00,37.2,14.0,30.38,WSW,242,8.0,-999.0,38,-99.99,,,0.00,meteohub,2013-03-10 10:35:00,
2013-03-10 06:40:00,37.2,14.0,30.38,NW,316,5.0,-999.0,38,-99.99,,,0.00,meteohub,2013-03-10 10:40:00,
2013-03-10 06:46:00,37.2,14.0,30.35,NW,314,8.0,-999.0,38,-99.99,,,0.00,meteohub,2013-03-10 10:46:00,
2013-03-10 06:51:00,37.2,14.0,30.35,WNW,287,8.0,-999.0,38,-99.99,,,0.00,meteohub,2013-03-10 10:51:00,
2013-03-10 06:56:00,37.0,13.8,30.35,WNW,294,6.0,-999.0,38,-99.99,,,0.00,meteohub,2013-03-10 10:56:00,
2013-03-10 07:02:00,37.2,14.0,30.35,NW,321,6.0,-999.0,38,-99.99,,,0.00,meteohub,2013-03-10 11:02:00,
2013-03-10 07:07:00,37.2,14.0,30.35,NW,321,7.0,-999.0,38,-99.99,,,0.00,meteohub,2013-03-10 11:07:00,
2013-03-10 07:12:00,37.2,14.0,30.35,NW,312,6.0,-999.0,38,-99.99,,,0.00,meteohub,2013-03-10 11:12:00,
2013-03-10 07:17:00,37.2,14.0,30.38,West,279,8.0,10.0,38,-99.99,,,0.00,meteohub,2013-03-10 11:17:00,
2013-03-10 07:22:00,37.2,14.0,30.38,NNW,334,4.0,10.0,38,-99.99,,,0.00,meteohub,2013-03-10 11:22:00,
2013-03-10 07:27:00,37.4,14.2,30.38,WNW,303,5.0,10.0,38,-99.99,,,0.00,meteohub,2013-03-10 11:27:00,
2013-03-10 07:33:00,37.4,14.2,30.35,NW,310,6.0,13.0,38,-99.99,,,0.00,meteohub,2013-03-10 11:33:00,
2013-03-10 07:38:00,37.6,14.2,30.35,NW,309,6.0,13.0,38,-99.99,,,0.00,meteohub,2013-03-10 11:38:00,
2013-03-10 07:43:00,37.6,14.2,30.35,WNW,299,3.0,13.0,38,-99.99,,,0.00,meteohub,2013-03-10 11:43:00,
2013-03-10 07:49:00,37.8,14.4,30.35,NW,322,9.0,9.0,38,-99.99,,,0.00,meteohub,2013-03-10 11:49:00,
2013-03-10 07:54:00,37.8,14.4,30.35,NE,35,8.0,9.0,38,-99.99,,,0.00,meteohub,2013-03-10 11:54:00,
2013-03-10 07:59:00,37.8,13.8,30.38,NW,313,9.0,9.0,37,-99.99,,,0.00,meteohub,2013-03-10 11:59:00,
2013-03-10 08:04:00,37.9,13.3,30.38,North,353,5.0,13.0,36,0.00,,,0.00,meteohub,2013-03-10 12:04:00,
2013-03-10 08:10:00,38.1,14.2,30.38,NNW,341,4.0,13.0,37,0.00,,,0.00,meteohub,2013-03-10 12:10:00,
2013-03-10 08:15:00,38.1,14.2,30.38,NW,319,5.0,13.0,37,0.00,,,0.00,meteohub,2013-03-10 12:15:00,
2013-03-10 08:20:00,38.3,13.6,30.38,NW,315,6.0,13.0,36,0.00,,,0.00,meteohub,2013-03-10 12:20:00,
2013-03-10 08:26:00,38.5,13.8,30.38,NW,316,13.0,13.0,36,0.00,,,0.00,meteohub,2013-03-10 12:26:00,
2013-03-10 08:31:00,38.5,13.8,30.38,NNE,15,5.0,9.0,36,0.00,,,0.00,meteohub,2013-03-10 12:31:00,
2013-03-10 08:36:00,38.7,14.0,30.38,SE,134,7.0,13.0,36,0.00,,,0.00,meteohub,2013-03-10 12:36:00,
2013-03-10 08:42:00,38.8,14.2,30.38,NNW,348,9.0,13.0,36,0.00,,,0.00,meteohub,2013-03-10 12:42:00,
2013-03-10 08:47:00,38.8,12.9,30.38,NW,320,7.0,8.0,34,0.00,,,0.00,meteohub,2013-03-10 12:47:00,
2013-03-10 08:52:00,38.8,12.2,30.38,West,265,11.0,11.0,33,0.00,,,0.00,meteohub,2013-03-10 12:52:00,
2013-03-10 08:57:00,38.8,12.2,30.38,NNW,333,8.0,15.0,33,0.00,,,0.00,meteohub,2013-03-10 12:57:00,
2013-03-10 09:02:00,39.0,12.4,30.38,WNW,294,5.0,15.0,33,0.00,,,0.00,meteohub,2013-03-10 13:02:00,
2013-03-10 09:07:00,39.2,11.8,30.38,NW,318,11.0,13.0,32,0.00,,,0.00,meteohub,2013-03-10 13:07:00,
2013-03-10 09:12:00,39.4,12.0,30.38,NW,313,8.0,13.0,32,0.00,,,0.00,meteohub,2013-03-10 13:12:00,
2013-03-10 09:18:00,39.6,12.2,30.38,NNW,335,11.0,13.0,32,0.00,,,0.00,meteohub,2013-03-10 13:18:00,
2013-03-10 09:23:00,39.6,11.5,30.38,NW,307,12.0,13.0,31,0.00,,,0.00,meteohub,2013-03-10 13:23:00,
2013-03-10 09:28:00,39.7,11.5,30.38,NW,304,8.0,13.0,31,0.00,,,0.00,meteohub,2013-03-10 13:28:00,
2013-03-10 09:34:00,39.9,10.9,30.38,NNW,338,11.0,13.0,30,0.00,,,0.00,meteohub,2013-03-10 13:34:00,
2013-03-10 09:39:00,39.9,10.9,30.38,NNW,334,8.0,16.0,30,0.00,,,0.00,meteohub,2013-03-10 13:39:00,
2013-03-10 09:44:00,40.1,11.1,30.38,North,357,9.0,16.0,30,0.00,,,0.00,meteohub,2013-03-10 13:44:00,
2013-03-10 09:49:00,40.3,11.3,30.38,North,3,8.0,16.0,30,0.00,,,0.00,meteohub,2013-03-10 13:49:00,
2013-03-10 09:55:00,40.5,11.5,30.38,NNW,348,9.0,15.0,30,0.00,,,0.00,meteohub,2013-03-10 13:55:00,
2013-03-10 10:00:00,40.6,10.9,30.38,NNW,332,10.0,15.0,29,0.00,,,0.00,meteohub,2013-03-10 14:00:00,
2013-03-10 10:05:00,40.8,11.8,30.38,NNW,331,6.0,12.0,30,0.00,,,0.00,meteohub,2013-03-10 14:05:00,
2013-03-10 10:11:00,41.2,11.3,30.38,NW,320,11.0,12.0,29,0.00,,,0.00,meteohub,2013-03-10 14:11:00,
2013-03-10 10:16:00,41.0,11.1,30.38,NNW,342,9.0,11.0,29,0.00,,,0.00,meteohub,2013-03-10 14:16:00,
2013-03-10 10:21:00,41.2,11.3,30.38,SE,144,9.0,11.0,29,0.00,,,0.00,meteohub,2013-03-10 14:21:00,
2013-03-10 10:27:00,41.7,11.8,30.38,NNW,339,5.0,11.0,29,0.00,,,0.00,meteohub,2013-03-10 14:27:00,
2013-03-10 10:32:00,41.7,10.9,30.41,North,0,8.0,11.0,28,0.00,,,0.00,meteohub,2013-03-10 14:32:00,
2013-03-10 10:37:00,41.7,9.3,30.41,NW,316,8.0,13.0,26,0.00,,,0.00,meteohub,2013-03-10 14:37:00,
2013-03-10 10:42:00,41.5,6.4,30.41,North,353,6.0,13.0,23,0.00,,,0.00,meteohub,2013-03-10 14:42:00,
2013-03-10 10:47:00,41.9,9.5,30.38,WNW,300,8.0,13.0,26,0.00,,,0.00,meteohub,2013-03-10 14:47:00,
2013-03-10 10:52:00,42.1,9.7,30.38,North,353,5.0,13.0,26,0.00,,,0.00,meteohub,2013-03-10 14:52:00,
2013-03-10 10:57:00,42.1,9.7,30.38,NW,318,8.0,13.0,26,0.00,,,0.00,meteohub,2013-03-10 14:57:00,
2013-03-10 11:02:00,42.1,9.7,30.38,NW,313,8.0,12.0,26,0.00,,,0.00,meteohub,2013-03-10 15:02:00,
2013-03-10 11:07:00,42.1,7.0,30.38,NW,309,10.0,12.0,23,0.00,,,0.00,meteohub,2013-03-10 15:07:00,
2013-03-10 11:12:00,42.3,7.2,30.38,WNW,298,8.0,13.0,23,0.00,,,0.00,meteohub,2013-03-10 15:12:00,
2013-03-10 11:17:00,42.3,7.2,30.41,NNW,331,6.0,13.0,23,0.00,,,0.00,meteohub,2013-03-10 15:17:00,
2013-03-10 11:23:00,42.3,5.2,30.41,NW,318,11.0,11.0,21,0.00,,,0.00,meteohub,2013-03-10 15:23:00,
2013-03-10 11:28:00,42.4,5.2,30.41,West,261,5.0,11.0,21,0.00,,,0.00,meteohub,2013-03-10 15:28:00,
2013-03-10 11:33:00,42.4,5.2,30.41,NNW,333,6.0,13.0,21,0.00,,,0.00,meteohub,2013-03-10 15:33:00,
2013-03-10 11:39:00,42.6,5.4,30.41,NW,326,3.0,11.0,21,0.00,,,0.00,meteohub,2013-03-10 15:39:00,
2013-03-10 11:44:00,42.8,2.1,30.41,WNW,297,0.0,10.0,18,0.00,,,0.00,meteohub,2013-03-10 15:44:00,
2013-03-10 11:49:00,43.0,4.6,30.41,NW,314,6.0,10.0,20,0.00,,,0.00,meteohub,2013-03-10 15:49:00,
2013-03-10 11:54:00,43.2,2.5,30.41,WNW,302,8.0,10.0,18,0.00,,,0.00,meteohub,2013-03-10 15:54:00,
2013-03-10 12:00:00,43.3,2.7,30.41,WNW,301,8.0,10.0,18,0.00,,,0.00,meteohub,2013-03-10 16:00:00,
2013-03-10 12:05:00,43.3,2.7,30.41,NW,308,8.0,11.0,18,0.00,,,0.00,meteohub,2013-03-10 16:05:00,
2013-03-10 12:10:00,43.3,2.7,30.41,West,272,5.0,11.0,18,0.00,,,0.00,meteohub,2013-03-10 16:10:00,
2013-03-10 12:15:00,43.3,2.7,30.41,NW,320,6.0,11.0,18,0.00,,,0.00,meteohub,2013-03-10 16:15:00,
2013-03-10 12:21:00,43.7,3.0,30.41,SSW,204,5.0,11.0,18,0.00,,,0.00,meteohub,2013-03-10 16:21:00,
2013-03-10 12:26:00,44.4,3.6,30.41,NW,313,5.0,10.0,18,0.00,,,0.00,meteohub,2013-03-10 16:26:00,
2013-03-10 12:31:00,44.6,-0.2,30.41,NW,313,9.0,11.0,15,0.00,,,0.00,meteohub,2013-03-10 16:31:00,
2013-03-10 12:36:00,44.2,-0.6,30.41,West,267,7.0,11.0,15,0.00,,,0.00,meteohub,2013-03-10 16:36:00,
2013-03-10 12:42:00,44.1,-0.6,30.41,NW,305,5.0,11.0,15,0.00,,,0.00,meteohub,2013-03-10 16:42:00,
2013-03-10 12:47:00,44.1,3.2,30.38,WNW,297,9.0,11.0,18,0.00,,,0.00,meteohub,2013-03-10 16:47:00,
2013-03-10 12:52:00,44.2,-0.6,30.38,North,350,7.0,11.0,15,0.00,,,0.00,meteohub,2013-03-10 16:52:00,
2013-03-10 12:57:00,44.6,-0.2,30.38,NNW,329,4.0,11.0,15,0.00,,,0.00,meteohub,2013-03-10 16:57:00,
2013-03-10 13:02:00,45.0,0.1,30.38,North,357,6.0,10.0,15,0.00,,,0.00,meteohub,2013-03-10 17:02:00,
2013-03-10 13:07:00,44.4,-3.5,30.38,NW,324,12.0,12.0,13,0.00,,,0.00,meteohub,2013-03-10 17:07:00,
2013-03-10 13:12:00,44.6,-0.2,30.38,WNW,285,8.0,12.0,15,0.00,,,0.00,meteohub,2013-03-10 17:12:00,
2013-03-10 13:17:00,45.0,0.1,30.38,North,357,6.0,12.0,15,0.00,,,0.00,meteohub,2013-03-10 17:17:00,
2013-03-10 13:22:00,45.7,0.7,30.38,NW,315,6.0,12.0,15,0.00,,,0.00,meteohub,2013-03-10 17:22:00,
2013-03-10 13:27:00,46.0,-3.8,30.38,North,353,6.0,12.0,12,0.00,,,0.00,meteohub,2013-03-10 17:27:00,
2013-03-10 13:32:00,46.4,-3.5,30.38,WNW,292,6.0,12.0,12,0.00,,,0.00,meteohub,2013-03-10 17:32:00,
2013-03-10 13:37:00,47.1,-2.9,30.38,NW,313,5.0,10.0,12,0.00,,,0.00,meteohub,2013-03-10 17:37:00,
2013-03-10 13:42:00,46.6,-3.3,30.38,North,4,8.0,9.0,12,0.00,,,0.00,meteohub,2013-03-10 17:42:00,
2013-03-10 13:47:00,46.6,-3.3,30.38,NW,314,6.0,11.0,12,0.00,,,0.00,meteohub,2013-03-10 17:47:00,
2013-03-10 13:52:00,46.6,-3.3,30.38,NNW,331,4.0,11.0,12,0.00,,,0.00,meteohub,2013-03-10 17:52:00,
2013-03-10 13:57:00,47.8,-2.4,30.38,WNW,291,4.0,11.0,12,0.00,,,0.00,meteohub,2013-03-10 17:57:00,
2013-03-10 14:02:00,47.7,-8.5,30.38,WNW,292,6.0,11.0,9,0.00,,,0.00,meteohub,2013-03-10 18:02:00,
2013-03-10 14:07:00,47.8,-8.3,30.38,North,6,8.0,11.0,9,0.00,,,0.00,meteohub,2013-03-10 18:07:00,
2013-03-10 14:12:00,48.9,-7.4,30.38,NW,315,6.0,11.0,9,0.00,,,0.00,meteohub,2013-03-10 18:12:00,
2013-03-10 14:17:00,48.9,-7.4,30.38,NNW,335,9.0,11.0,9,0.00,,,0.00,meteohub,2013-03-10 18:17:00,
2013-03-10 14:22:00,48.0,-8.1,30.38,NW,317,6.0,11.0,9,0.00,,,0.00,meteohub,2013-03-10 18:22:00,
2013-03-10 14:27:00,48.0,-8.1,30.38,North,357,6.0,11.0,9,0.00,,,0.00,meteohub,2013-03-10 18:27:00,
2013-03-10 14:32:00,48.9,-7.4,30.38,NW,315,4.0,11.0,9,0.00,,,0.00,meteohub,2013-03-10 18:32:00,
2013-03-10 14:37:00,50.0,-6.7,30.38,NNW,329,6.0,9.0,9,0.00,,,0.00,meteohub,2013-03-10 18:37:00,
2013-03-10 14:42:00,50.2,-6.5,30.38,WNW,300,6.0,9.0,9,0.00,,,0.00,meteohub,2013-03-10 18:42:00,
2013-03-10 14:47:00,50.2,-6.5,30.35,WNW,293,4.0,8.0,9,0.00,,,0.00,meteohub,2013-03-10 18:47:00,
2013-03-10 14:52:00,50.5,-6.2,30.35,NE,51,5.0,8.0,9,0.00,,,0.00,meteohub,2013-03-10 18:52:00,
2013-03-10 14:58:00,50.4,-6.3,30.35,North,1,6.0,8.0,9,0.00,,,0.00,meteohub,2013-03-10 18:58:00,
2013-03-10 15:03:00,49.8,-6.9,30.35,ESE,117,6.0,6.0,9,0.00,,,0.00,meteohub,2013-03-10 19:03:00,
2013-03-10 15:08:00,50.0,-6.7,30.35,WNW,287,6.0,6.0,9,0.00,,,0.00,meteohub,2013-03-10 19:08:00,
2013-03-10 15:13:00,50.5,-6.2,30.35,NW,322,5.0,9.0,9,0.00,,,0.00,meteohub,2013-03-10 19:13:00,
2013-03-10 15:18:00,50.2,-6.5,30.35,WNW,295,9.0,9.0,9,0.00,,,0.00,meteohub,2013-03-10 19:18:00,
2013-03-10 15:24:00,50.4,-6.3,30.35,ENE,69,4.0,12.0,9,0.00,,,0.00,meteohub,2013-03-10 19:24:00,
2013-03-10 15:29:00,49.1,-7.4,30.35,NNE,23,11.0,12.0,9,0.00,,,0.00,meteohub,2013-03-10 19:29:00,
2013-03-10 15:34:00,46.9,-9.0,30.35,North,357,10.0,12.0,9,0.00,,,0.00,meteohub,2013-03-10 19:34:00,
2013-03-10 15:40:00,47.3,-8.7,30.35,NW,307,5.0,15.0,9,0.00,,,0.00,meteohub,2013-03-10 19:40:00,
2013-03-10 15:45:00,47.8,-8.3,30.35,NNE,21,12.0,15.0,9,0.00,,,0.00,meteohub,2013-03-10 19:45:00,
2013-03-10 15:50:00,46.6,-9.2,30.35,NE,47,10.0,15.0,9,0.00,,,0.00,meteohub,2013-03-10 19:50:00,
2013-03-10 15:56:00,47.8,-8.3,30.35,North,4,8.0,15.0,9,0.00,,,0.00,meteohub,2013-03-10 19:56:00,
2013-03-10 16:01:00,48.4,-8.0,30.35,NNE,25,8.0,15.0,9,0.00,,,0.00,meteohub,2013-03-10 20:01:00,
2013-03-10 16:06:00,47.1,-8.9,30.35,North,2,9.0,15.0,9,0.00,,,0.00,meteohub,2013-03-10 20:06:00,
2013-03-10 16:12:00,46.8,-9.2,30.35,NE,37,8.0,13.0,9,0.00,,,0.00,meteohub,2013-03-10 20:12:00,
2013-03-10 16:17:00,46.8,-9.2,30.35,North,353,5.0,13.0,9,0.00,,,0.00,meteohub,2013-03-10 20:17:00,
2013-03-10 16:22:00,47.3,-8.7,30.35,NNE,30,9.0,12.0,9,0.00,,,0.00,meteohub,2013-03-10 20:22:00,
2013-03-10 16:27:00,46.2,-7.4,30.35,NNE,16,11.0,12.0,10,0.00,,,0.00,meteohub,2013-03-10 20:27:00,
2013-03-10 16:32:00,45.0,-8.3,30.35,North,0,11.0,15.0,10,0.00,,,0.00,meteohub,2013-03-10 20:32:00,
2013-03-10 16:37:00,45.3,-8.1,30.35,North,353,4.0,15.0,10,0.00,,,0.00,meteohub,2013-03-10 20:37:00,
2013-03-10 16:42:00,45.3,-8.1,30.35,NE,39,11.0,13.0,10,0.00,,,0.00,meteohub,2013-03-10 20:42:00,
2013-03-10 16:48:00,44.1,-3.6,30.35,NNE,18,11.0,15.0,13,0.00,,,0.00,meteohub,2013-03-10 20:48:00,
2013-03-10 16:53:00,43.3,-4.2,30.35,NNE,20,9.0,15.0,13,0.00,,,0.00,meteohub,2013-03-10 20:53:00,
2013-03-10 16:58:00,43.0,-4.5,30.35,NNE,20,13.0,15.0,13,0.00,,,0.00,meteohub,2013-03-10 20:58:00,
2013-03-10 17:03:00,43.0,-4.5,30.35,NE,43,10.0,13.0,13,0.00,,,0.00,meteohub,2013-03-10 21:03:00,
2013-03-10 17:08:00,42.3,-0.8,30.35,NNE,18,11.0,13.0,16,0.00,,,0.00,meteohub,2013-03-10 21:08:00,
2013-03-10 17:13:00,41.7,1.2,30.35,NNE,18,10.0,13.0,18,0.00,,,0.00,meteohub,2013-03-10 21:13:00,
2013-03-10 17:19:00,41.2,4.1,30.35,NNE,14,9.0,13.0,21,0.00,,,0.00,meteohub,2013-03-10 21:19:00,
2013-03-10 17:24:00,41.0,6.1,30.35,NE,36,11.0,13.0,23,0.00,,,0.00,meteohub,2013-03-10 21:24:00,
2013-03-10 17:29:00,40.6,3.7,30.35,NNE,20,8.0,13.0,21,0.00,,,0.00,meteohub,2013-03-10 21:29:00,
2013-03-10 17:34:00,40.5,3.6,30.35,NE,37,11.0,13.0,21,0.00,,,0.00,meteohub,2013-03-10 21:34:00,
2013-03-10 17:39:00,40.3,5.4,30.35,North,4,8.0,13.0,23,0.00,,,0.00,meteohub,2013-03-10 21:39:00,
2013-03-10 17:44:00,40.1,5.2,30.35,North,2,6.0,13.0,23,0.00,,,0.00,meteohub,2013-03-10 21:44:00,
2013-03-10 17:49:00,40.3,5.4,30.35,North,353,6.0,13.0,23,0.00,,,0.00,meteohub,2013-03-10 21:49:00,
2013-03-10 17:54:00,40.3,5.4,30.35,NNW,343,8.0,12.0,23,0.00,,,0.00,meteohub,2013-03-10 21:54:00,
2013-03-10 17:59:00,40.1,5.2,30.35,North,353,9.0,12.0,23,0.00,,,0.00,meteohub,2013-03-10 21:59:00,
2013-03-10 18:05:00,39.9,5.2,30.35,NNE,12,5.0,8.0,23,0.00,,,0.00,meteohub,2013-03-10 22:05:00,
2013-03-10 18:10:00,39.9,5.2,30.35,North,353,8.0,9.0,23,0.00,,,0.00,meteohub,2013-03-10 22:10:00,
2013-03-10 18:15:00,39.4,7.3,30.38,North,357,9.0,9.0,26,0.00,,,0.00,meteohub,2013-03-10 22:15:00,
2013-03-10 18:20:00,39.4,7.3,30.38,North,350,7.0,9.0,26,0.00,,,0.00,meteohub,2013-03-10 22:20:00,
2013-03-10 18:26:00,39.2,7.2,30.38,North,357,5.0,9.0,26,0.00,,,0.00,meteohub,2013-03-10 22:26:00,
2013-03-10 18:31:00,38.8,6.8,30.38,North,353,4.0,8.0,26,0.00,,,0.00,meteohub,2013-03-10 22:31:00,
2013-03-10 18:36:00,38.7,6.8,30.38,North,353,6.0,8.0,26,0.00,,,0.00,meteohub,2013-03-10 22:36:00,
2013-03-10 18:42:00,38.5,6.6,30.38,NNW,346,3.0,8.0,26,0.00,,,0.00,meteohub,2013-03-10 22:42:00,
2013-03-10 18:47:00,38.5,6.6,30.38,NNE,12,4.0,6.0,26,0.00,,,0.00,meteohub,2013-03-10 22:47:00,
2013-03-10 18:52:00,38.3,8.8,30.38,North,4,6.0,6.0,29,0.00,,,0.00,meteohub,2013-03-10 22:52:00,
2013-03-10 18:57:00,38.3,8.8,30.38,North,357,6.0,6.0,29,0.00,,,0.00,meteohub,2013-03-10 22:57:00,
2013-03-10 19:02:00,38.5,9.0,30.38,North,357,4.0,6.0,29,0.00,,,0.00,meteohub,2013-03-10 23:02:00,
2013-03-10 19:08:00,38.3,8.8,30.38,North,5,5.0,6.0,29,0.00,,,0.00,meteohub,2013-03-10 23:08:00,
2013-03-10 19:13:00,38.5,9.0,30.38,North,357,3.0,6.0,29,0.00,,,0.00,meteohub,2013-03-10 23:13:00,
2013-03-10 19:19:00,38.5,9.0,30.38,North,3,5.0,6.0,29,0.00,,,0.00,meteohub,2013-03-10 23:19:00,
2013-03-10 19:24:00,38.5,9.7,30.38,North,353,6.0,6.0,30,0.00,,,0.00,meteohub,2013-03-10 23:24:00,
2013-03-10 19:29:00,38.3,9.5,30.38,North,353,6.0,8.0,30,0.00,,,0.00,meteohub,2013-03-10 23:29:00,
2013-03-10 19:35:00,38.3,9.5,30.38,North,2,3.0,8.0,30,0.00,,,0.00,meteohub,2013-03-10 23:35:00,
2013-03-10 19:40:00,38.1,9.5,30.38,North,350,4.0,8.0,30,0.00,,,0.00,meteohub,2013-03-10 23:40:00,
2013-03-10 19:45:00,38.1,9.5,30.38,North,350,4.0,8.0,30,0.00,,,0.00,meteohub,2013-03-10 23:45:00,
2013-03-10 19:50:00,38.3,9.5,30.38,North,1,5.0,6.0,30,0.00,,,0.00,meteohub,2013-03-10 23:50:00,
2013-03-10 19:55:00,38.3,9.5,30.38,North,8,4.0,5.0,30,0.00,,,0.00,meteohub,2013-03-10 23:55:00,
2013-03-10 20:00:00,38.5,9.7,30.38,NNW,346,5.0,5.0,30,0.00,,,0.00,meteohub,2013-03-11 00:00:00,
2013-03-10 20:06:00,38.3,9.5,30.38,NE,47,5.0,7.0,30,0.00,,,0.00,meteohub,2013-03-11 00:06:00,
2013-03-10 20:11:00,38.3,9.5,30.38,NNW,342,4.0,7.0,30,0.00,,,0.00,meteohub,2013-03-11 00:11:00,
2013-03-10 20:17:00,38.3,9.5,30.38,NW,324,6.0,6.0,30,0.00,,,0.00,meteohub,2013-03-11 00:17:00,
2013-03-10 20:22:00,38.3,10.2,30.38,NE,37,3.0,6.0,31,0.00,,,0.00,meteohub,2013-03-11 00:22:00,
2013-03-10 20:27:00,38.3,10.9,30.38,NE,34,5.0,6.0,32,0.00,,,0.00,meteohub,2013-03-11 00:27:00,
2013-03-10 20:32:00,38.1,10.9,30.38,NE,49,8.0,9.0,32,0.00,,,0.00,meteohub,2013-03-11 00:32:00,
2013-03-10 20:37:00,38.1,11.5,30.38,ENE,58,5.0,9.0,33,0.00,,,0.00,meteohub,2013-03-11 00:37:00,
2013-03-10 20:42:00,37.9,11.3,30.38,NNE,31,8.0,9.0,33,0.00,,,0.00,meteohub,2013-03-11 00:42:00,
2013-03-10 20:47:00,37.8,11.3,30.38,NE,44,4.0,11.0,33,0.00,,,0.00,meteohub,2013-03-11 00:47:00,
2013-03-10 20:52:00,37.8,11.8,30.38,NE,54,8.0,11.0,34,0.00,,,0.00,meteohub,2013-03-11 00:52:00,
2013-03-10 20:57:00,37.8,11.8,30.38,NE,50,5.0,11.0,34,0.00,,,0.00,meteohub,2013-03-11 00:57:00,
2013-03-10 21:02:00,37.8,12.6,30.38,NE,53,6.0,10.0,35,0.00,,,0.00,meteohub,2013-03-11 01:02:00,
2013-03-10 21:08:00,37.9,12.7,30.38,North,10,5.0,11.0,35,0.00,,,0.00,meteohub,2013-03-11 01:08:00,
2013-03-10 21:13:00,37.8,12.6,30.38,North,4,4.0,11.0,35,0.00,,,0.00,meteohub,2013-03-11 01:13:00,
2013-03-10 21:18:00,37.8,12.6,30.38,NE,56,5.0,11.0,35,0.00,,,0.00,meteohub,2013-03-11 01:18:00,
2013-03-10 21:23:00,37.8,12.6,30.38,ENE,57,5.0,11.0,35,0.00,,,0.00,meteohub,2013-03-11 01:23:00,
2013-03-10 21:28:00,37.9,13.3,30.38,NE,41,6.0,11.0,36,0.00,,,0.00,meteohub,2013-03-11 01:28:00,
2013-03-10 21:33:00,37.8,12.6,30.38,NE,35,5.0,8.0,35,0.00,,,0.00,meteohub,2013-03-11 01:33:00,
2013-03-10 21:38:00,37.8,13.3,30.38,NNE,22,8.0,8.0,36,0.00,,,0.00,meteohub,2013-03-11 01:38:00,
2013-03-10 21:44:00,37.6,12.4,30.38,NE,43,8.0,10.0,35,0.00,,,0.00,meteohub,2013-03-11 01:44:00,
2013-03-10 21:49:00,37.6,13.1,30.38,NE,55,5.0,10.0,36,0.00,,,0.00,meteohub,2013-03-11 01:49:00,
2013-03-10 21:54:00,37.6,13.1,30.38,NE,56,5.0,10.0,36,0.00,,,0.00,meteohub,2013-03-11 01:54:00,
2013-03-10 21:59:00,37.6,13.6,30.38,ENE,61,6.0,8.0,37,0.00,,,0.00,meteohub,2013-03-11 01:59:00,
2013-03-10 22:04:00,37.6,13.6,30.38,ENE,58,7.0,8.0,37,0.00,,,0.00,meteohub,2013-03-11 02:04:00,
2013-03-10 22:09:00,37.6,13.6,30.38,ENE,68,6.0,8.0,37,0.00,,,0.00,meteohub,2013-03-11 02:09:00,
2013-03-10 22:14:00,37.4,12.9,30.38,ENE,70,8.0,8.0,36,0.00,,,0.00,meteohub,2013-03-11 02:14:00,
2013-03-10 22:20:00,37.4,13.5,30.38,ENE,68,6.0,8.0,37,0.00,,,0.00,meteohub,2013-03-11 02:20:00,
2013-03-10 22:25:00,37.4,13.5,30.38,NE,49,8.0,9.0,37,0.00,,,0.00,meteohub,2013-03-11 02:25:00,
2013-03-10 22:30:00,37.2,13.3,30.38,ENE,62,5.0,10.0,37,0.00,,,0.00,meteohub,2013-03-11 02:30:00,
2013-03-10 22:35:00,37.2,14.0,30.38,NE,54,6.0,10.0,38,0.00,,,0.00,meteohub,2013-03-11 02:35:00,
2013-03-10 22:41:00,37.2,14.5,30.38,NE,52,8.0,10.0,39,0.00,,,0.00,meteohub,2013-03-11 02:41:00,
2013-03-10 22:47:00,37.2,14.5,30.35,ENE,57,9.0,9.0,39,0.00,,,0.00,meteohub,2013-03-11 02:47:00,
2013-03-10 22:52:00,37.0,14.4,30.35,NE,42,8.0,11.0,39,0.00,,,0.00,meteohub,2013-03-11 02:52:00,
2013-03-10 22:57:00,37.2,15.1,30.35,NE,45,8.0,11.0,40,0.00,,,0.00,meteohub,2013-03-11 02:57:00,
2013-03-10 23:02:00,37.4,14.7,30.35,NE,46,8.0,11.0,39,0.00,,,0.00,meteohub,2013-03-11 03:02:00,
2013-03-10 23:07:00,37.4,14.7,30.35,ENE,67,6.0,11.0,39,0.00,,,0.00,meteohub,2013-03-11 03:07:00,
2013-03-10 23:12:00,37.4,14.7,30.35,ENE,69,6.0,11.0,39,0.00,,,0.00,meteohub,2013-03-11 03:12:00,
2013-03-10 23:17:00,37.4,14.7,30.38,NNE,33,6.0,9.0,39,0.00,,,0.00,meteohub,2013-03-11 03:17:00,
2013-03-10 23:22:00,37.4,14.7,30.38,East,95,4.0,8.0,39,0.00,,,0.00,meteohub,2013-03-11 03:22:00,
2013-03-10 23:27:00,37.4,14.7,30.38,East,81,5.0,8.0,39,0.00,,,0.00,meteohub,2013-03-11 03:27:00,
2013-03-10 23:32:00,37.4,14.7,30.38,East,93,5.0,8.0,39,0.00,,,0.00,meteohub,2013-03-11 03:32:00,
2013-03-10 23:38:00,37.6,14.9,30.38,ESE,112,5.0,8.0,39,0.00,,,0.00,meteohub,2013-03-11 03:38:00,
2013-03-10 23:43:00,37.4,14.7,30.38,East,85,6.0,8.0,39,0.00,,,0.00,meteohub,2013-03-11 03:43:00,
2013-03-10 23:48:00,37.4,14.7,30.38,East,84,8.0,8.0,39,0.00,,,0.00,meteohub,2013-03-11 03:48:00,
2013-03-10 23:53:00,37.4,14.7,30.38,East,82,6.0,8.0,39,0.00,,,0.00,meteohub,2013-03-11 03:53:00,
2013-03-10 23:58:00,37.6,14.9,30.38,ENE,77,8.0,8.0,39,0.00,,,0.00,meteohub,2013-03-11 03:58:00,